Flag for U.S.A. Weather past 2 weeks in Howell, Michigan, U.S.A.

Now
69 °F

Sunny.


Feels Like: 69 °F
Forecast: 46 / 69 °F
Wind: 10 mph from North

Location: Livingston County Airport

Current Time: Apr 18, 2015 at 1:21:52 PM

Latest Report: Apr 18, 2015 at 12:55 PM


Visibility: 10 mi

Pressure: 30.09 "Hg

Humidity: 26%

Dew point: 33 °F

Location of HowellLocation

Historic Weather in Howell — Graph

°F

Howell temperature yesterday

Maximum temperature yesterday: 75 °F (at 3:35 PM)
Minimum temperature yesterday: 42 °F (at 7:15 AM)
Average temperature yesterday: 61 °F

Past Weeks' High & Low Weather Summary

 TemperatureHumidityPressure
High75 °F (Apr 17, 3:35 PM)100% (Apr 8, 10:14 PM)30.37 "Hg (Apr 8, 10:14 PM)
Low22 °F (Apr 4, 6:15 AM)16% (Apr 15, 4:35 PM)29.42 "Hg (Apr 10, 4:35 AM)
Average49 °F62%30.06 "Hg
* Reported Apr 3 12:15 PM — Apr 18 12:14 PM, Howell, Weather by CustomWeather, © 2015

Note: Actual official high and low records may vary slightly from our data, if they occured in-between our weather recording intervals... More about our weather records

Advertising

Howell weather history for previous 24 hours

 ConditionsComfort  
Time TempWeatherWind HumidityBarometerVisibility
12:14 PM
Sat, Apr 18
69 °FSunny.9 mph25%30.09 "Hg10 mi
11:55 AM68 °FSunny.12 mph27%30.09 "Hg10 mi
11:35 AM67 °FSunny.12 mph27%30.08 "Hg10 mi
11:15 AM67 °FSunny.10 mph29%30.09 "Hg10 mi
10:55 AM66 °FSunny.12 mph31%30.08 "Hg10 mi
10:35 AM65 °FSunny.9 mph35%30.08 "Hg10 mi
10:15 AM64 °FSunny.8 mph36%30.07 "Hg10 mi
9:55 AM63 °FSunny.7 mph41%30.07 "Hg10 mi
9:34 AM63 °FSunny.10 mph45%30.07 "Hg10 mi
9:15 AM60 °FSunny.5 mph50%30.06 "Hg10 mi
8:55 AM59 °FSunny.5 mph54%30.06 "Hg10 mi
8:34 AM57 °FScattered clouds.5 mph57%30.06 "Hg10 mi
8:15 AM56 °FPartly sunny.No wind61%30.04 "Hg10 mi
7:55 AM54 °FOvercast.3 mph65%30.04 "Hg10 mi
7:35 AM53 °FOvercast.5 mph67%30.04 "Hg10 mi
7:15 AM52 °FOvercast.3 mph65%30.03 "Hg10 mi
6:55 AM50 °FPassing clouds.5 mph69%30.03 "Hg10 mi
6:35 AM50 °FPassing clouds.5 mph67%30.02 "Hg10 mi
6:15 AM51 °FClear.5 mph64%30.02 "Hg10 mi
5:55 AM52 °FClear.5 mph61%30.01 "Hg10 mi
5:35 AM51 °FClear.5 mph64%30.01 "Hg10 mi
5:15 AM51 °FClear.5 mph66%30.02 "Hg10 mi
4:54 AM51 °FClear.5 mph66%30.01 "Hg10 mi
4:35 AM48 °FClear.No wind72%30.01 "Hg10 mi
4:15 AM48 °FClear.No wind72%30.01 "Hg10 mi
3:54 AM49 °FClear.No wind71%30.01 "Hg10 mi
3:35 AM49 °FClear.No wind71%30.01 "Hg10 mi
3:15 AM49 °FClear.No wind69%30.00 "Hg10 mi
2:54 AM49 °FClear.No wind69%30.00 "Hg10 mi
2:35 AM52 °FClear.3 mph63%30.00 "Hg10 mi
2:15 AM51 °FClear.5 mph65%30.00 "Hg10 mi
1:54 AM54 °FClear.No wind57%30.00 "Hg10 mi
1:35 AM57 °FClear.3 mph50%30.00 "Hg10 mi
1:15 AM57 °FClear.3 mph52%30.00 "Hg10 mi
12:54 AM56 °FClear.5 mph55%30.00 "Hg10 mi
12:35 AM57 °FClear.5 mph53%30.00 "Hg10 mi
12:15 AM58 °FClear.5 mph50%30.00 "Hg10 mi
11:54 PM
Fri, Apr 17
59 °FClear.5 mph48%30.00 "Hg10 mi
11:15 PM62 °FClear.5 mph41%30.01 "Hg10 mi
10:55 PM62 °FClear.5 mph41%30.01 "Hg10 mi
10:35 PM62 °FClear.6 mph42%30.02 "Hg10 mi
10:15 PM64 °FClear.6 mph40%30.02 "Hg10 mi
9:55 PM63 °FClear.5 mph40%30.02 "Hg10 mi
9:35 PM64 °FClear.5 mph37%30.01 "Hg10 mi
9:15 PM64 °FSunny.5 mph36%30.00 "Hg10 mi
8:55 PM66 °FSunny.5 mph34%30.00 "Hg10 mi
8:35 PM67 °FSunny.3 mph33%30.00 "Hg10 mi
8:14 PM67 °FSunny.5 mph33%29.99 "Hg10 mi
7:55 PM68 °FSunny.6 mph33%29.99 "Hg10 mi
7:35 PM71 °FScattered clouds.6 mph29%29.99 "Hg10 mi
7:14 PM72 °FOvercast.5 mph28%29.99 "Hg10 mi
6:55 PM72 °FOvercast.7 mph28%29.99 "Hg10 mi
6:35 PM72 °FOvercast.7 mph27%29.99 "Hg10 mi
6:14 PM73 °FPartly sunny.6 mph25%29.98 "Hg10 mi
5:55 PM74 °FPartly sunny.6 mph25%29.98 "Hg10 mi
5:35 PM75 °FPartly sunny.8 mph24%29.98 "Hg10 mi
5:14 PM75 °FOvercast.8 mph24%29.98 "Hg10 mi
4:55 PM74 °FPartly sunny.8 mph25%29.99 "Hg10 mi
4:35 PM75 °FPartly sunny.9 mph23%29.99 "Hg10 mi
4:14 PM75 °FPartly sunny.6 mph23%29.99 "Hg10 mi
3:55 PM74 °FOvercast.9 mph25%30.00 "Hg10 mi
3:35 PM75 °FPartly sunny.8 mph23%30.01 "Hg10 mi
3:14 PM75 °FOvercast.9 mph23%30.02 "Hg10 mi
2:55 PM74 °FOvercast.9 mph24%30.03 "Hg10 mi
2:35 PM74 °FPartly sunny.13 mph24%30.03 "Hg10 mi
2:14 PM73 °FSunny.8 mph25%30.03 "Hg10 mi
1:55 PM73 °FSunny.8 mph24%30.04 "Hg10 mi
1:35 PM72 °FSunny.6 mph27%30.04 "Hg10 mi
1:15 PM71 °FSunny.6 mph28%30.05 "Hg10 mi
Weather by CustomWeather, © 2015

See weather overviewHow to use our weather pages